Year,Month,Day,Hour,Minute,Value (Times are PST for temperature in C)
2015,06,05,00,00,14.00
2015,06,05,00,01,13.90
2015,06,05,00,02,13.90
2015,06,05,00,03,13.80
2015,06,05,00,04,13.80
2015,06,05,00,05,13.70
2015,06,05,00,06,13.70
2015,06,05,00,07,13.70
2015,06,05,00,08,13.70
2015,06,05,00,09,13.60
2015,06,05,00,10,13.60
2015,06,05,00,11,13.60
2015,06,05,00,12,13.50
2015,06,05,00,13,13.50
2015,06,05,00,14,13.50
2015,06,05,00,15,13.60
2015,06,05,00,16,13.60
2015,06,05,00,17,13.60
2015,06,05,00,18,13.60
2015,06,05,00,19,13.60
2015,06,05,00,20,13.60
2015,06,05,00,21,13.60
2015,06,05,00,22,13.60
2015,06,05,00,23,13.50
2015,06,05,00,24,13.50
2015,06,05,00,25,13.50
2015,06,05,00,26,13.50
2015,06,05,00,27,13.50
2015,06,05,00,28,13.50
2015,06,05,00,29,13.50
2015,06,05,00,30,13.50
2015,06,05,00,31,13.50
2015,06,05,00,32,13.60
2015,06,05,00,33,13.60
2015,06,05,00,34,13.60
2015,06,05,00,35,13.60
2015,06,05,00,36,13.60
2015,06,05,00,37,13.70
2015,06,05,00,38,13.80
2015,06,05,00,39,13.80
2015,06,05,00,40,13.80
2015,06,05,00,41,13.80
2015,06,05,00,42,13.80
2015,06,05,00,43,13.80
2015,06,05,00,44,13.80
2015,06,05,00,45,13.80
2015,06,05,00,46,13.80
2015,06,05,00,47,13.80
2015,06,05,00,48,13.80
2015,06,05,00,49,13.80
2015,06,05,00,50,13.80
2015,06,05,00,51,13.80
2015,06,05,00,52,13.80
2015,06,05,00,53,13.80
2015,06,05,00,54,13.70
2015,06,05,00,55,13.70
2015,06,05,00,56,13.70
2015,06,05,00,57,13.60
2015,06,05,00,58,13.60
2015,06,05,00,59,13.50
2015,06,05,01,00,13.50
2015,06,05,01,01,13.40
2015,06,05,01,02,13.40
2015,06,05,01,03,13.40
2015,06,05,01,04,13.30
2015,06,05,01,05,13.30
2015,06,05,01,06,13.30
2015,06,05,01,07,13.30
2015,06,05,01,08,13.30
2015,06,05,01,09,13.30
2015,06,05,01,10,13.30
2015,06,05,01,11,13.30
2015,06,05,01,12,13.30
2015,06,05,01,13,13.40
2015,06,05,01,14,13.40
2015,06,05,01,15,13.40
2015,06,05,01,16,13.40
2015,06,05,01,17,13.40
2015,06,05,01,18,13.40
2015,06,05,01,19,13.40
2015,06,05,01,20,13.30
2015,06,05,01,21,13.30
2015,06,05,01,22,13.30
2015,06,05,01,23,13.30
2015,06,05,01,24,13.30
2015,06,05,01,25,13.20
2015,06,05,01,26,13.20
2015,06,05,01,27,13.20
2015,06,05,01,28,13.20
2015,06,05,01,29,13.20
2015,06,05,01,30,13.20
2015,06,05,01,31,13.20
2015,06,05,01,32,13.10
2015,06,05,01,33,13.10
2015,06,05,01,34,13.10
2015,06,05,01,35,13.10
2015,06,05,01,36,13.10
2015,06,05,01,37,13.10
2015,06,05,01,38,13.10
2015,06,05,01,39,13.10
2015,06,05,01,40,13.10
2015,06,05,01,41,13.10
2015,06,05,01,42,13.10
2015,06,05,01,43,13.00
2015,06,05,01,44,13.00
2015,06,05,01,45,13.00
2015,06,05,01,46,13.00
2015,06,05,01,47,12.90
2015,06,05,01,48,12.90
2015,06,05,01,49,12.90
2015,06,05,01,50,12.90
2015,06,05,01,51,12.90
2015,06,05,01,52,12.90
2015,06,05,01,53,12.90
2015,06,05,01,54,12.90
2015,06,05,01,55,12.90
2015,06,05,01,56,12.90
2015,06,05,01,57,13.00
2015,06,05,01,58,12.90
2015,06,05,01,59,12.90
2015,06,05,02,00,12.90
2015,06,05,02,01,12.90
2015,06,05,02,02,12.90
2015,06,05,02,03,12.90
2015,06,05,02,04,12.90
2015,06,05,02,05,13.00
2015,06,05,02,06,13.00
2015,06,05,02,07,13.00
2015,06,05,02,08,13.00
2015,06,05,02,09,13.00
2015,06,05,02,10,12.90
2015,06,05,02,11,12.90
2015,06,05,02,12,12.90
2015,06,05,02,13,12.90
2015,06,05,02,14,12.90
2015,06,05,02,15,13.00
2015,06,05,02,16,13.00
2015,06,05,02,17,13.00
2015,06,05,02,18,13.00
2015,06,05,02,19,13.00
2015,06,05,02,20,13.00
2015,06,05,02,21,13.00
2015,06,05,02,22,12.90
2015,06,05,02,23,12.90
2015,06,05,02,24,12.90
2015,06,05,02,25,12.80
2015,06,05,02,26,12.80
2015,06,05,02,27,12.80
2015,06,05,02,28,12.80
2015,06,05,02,29,12.70
2015,06,05,02,30,12.70
2015,06,05,02,31,12.70
2015,06,05,02,32,12.70
2015,06,05,02,33,12.70
2015,06,05,02,34,12.70
2015,06,05,02,35,12.60
2015,06,05,02,36,12.60
2015,06,05,02,37,12.60
2015,06,05,02,38,12.60
2015,06,05,02,39,12.60
2015,06,05,02,40,12.50
2015,06,05,02,41,12.50
2015,06,05,02,42,12.40
2015,06,05,02,43,12.40
2015,06,05,02,44,12.40
2015,06,05,02,45,12.30
2015,06,05,02,46,12.30
2015,06,05,02,47,12.30
2015,06,05,02,48,12.20
2015,06,05,02,49,12.20
2015,06,05,02,50,12.20
2015,06,05,02,51,12.20
2015,06,05,02,52,12.10
2015,06,05,02,53,12.10
2015,06,05,02,54,12.10
2015,06,05,02,55,12.10
2015,06,05,02,56,12.10
2015,06,05,02,57,12.10
2015,06,05,02,58,12.10
2015,06,05,02,59,12.10
2015,06,05,03,00,12.10
2015,06,05,03,01,12.10
2015,06,05,03,02,12.10
2015,06,05,03,03,12.10
2015,06,05,03,04,12.10
2015,06,05,03,05,12.10
2015,06,05,03,06,12.10
2015,06,05,03,07,12.10
2015,06,05,03,08,12.00
2015,06,05,03,09,12.00
2015,06,05,03,10,11.90
2015,06,05,03,11,11.90
2015,06,05,03,12,11.90
2015,06,05,03,13,11.80
2015,06,05,03,14,11.80
2015,06,05,03,15,11.80
2015,06,05,03,16,11.80
2015,06,05,03,17,11.80
2015,06,05,03,18,11.80
2015,06,05,03,19,11.80
2015,06,05,03,20,11.80
2015,06,05,03,21,11.80
2015,06,05,03,22,11.80
2015,06,05,03,23,11.80
2015,06,05,03,24,11.80
2015,06,05,03,25,11.80
2015,06,05,03,26,11.80
2015,06,05,03,27,11.80
2015,06,05,03,28,11.80
2015,06,05,03,29,11.80
2015,06,05,03,30,11.70
2015,06,05,03,31,11.70
2015,06,05,03,32,11.70
2015,06,05,03,33,11.70
2015,06,05,03,34,11.70
2015,06,05,03,35,11.60
2015,06,05,03,36,11.60
2015,06,05,03,37,11.60
2015,06,05,03,38,11.60
2015,06,05,03,39,11.60
2015,06,05,03,40,11.60
2015,06,05,03,41,11.60
2015,06,05,03,42,11.60
2015,06,05,03,43,11.50
2015,06,05,03,44,11.50
2015,06,05,03,45,11.50
2015,06,05,03,46,11.50
2015,06,05,03,47,11.40
2015,06,05,03,48,11.40
2015,06,05,03,49,11.40
2015,06,05,03,50,11.40
2015,06,05,03,51,11.40
2015,06,05,03,52,11.40
2015,06,05,03,53,11.30
2015,06,05,03,54,11.30
2015,06,05,03,55,11.30
2015,06,05,03,56,11.40
2015,06,05,03,57,11.40
2015,06,05,03,58,11.40
2015,06,05,03,59,11.40
2015,06,05,04,00,11.40
2015,06,05,04,01,11.50
2015,06,05,04,02,11.50
2015,06,05,04,03,11.50
2015,06,05,04,04,11.60
2015,06,05,04,05,11.60
2015,06,05,04,06,11.70
2015,06,05,04,07,11.80
2015,06,05,04,08,11.80
2015,06,05,04,09,11.90
2015,06,05,04,10,12.00
2015,06,05,04,11,12.00
2015,06,05,04,12,12.00
2015,06,05,04,13,11.90
2015,06,05,04,14,11.90
2015,06,05,04,15,11.90
2015,06,05,04,16,11.80
2015,06,05,04,17,11.80
2015,06,05,04,18,11.80
2015,06,05,04,19,11.70
2015,06,05,04,20,11.70
2015,06,05,04,21,11.60
2015,06,05,04,22,11.60
2015,06,05,04,23,11.60
2015,06,05,04,24,11.60
2015,06,05,04,25,11.60
2015,06,05,04,26,11.60
2015,06,05,04,27,11.60
2015,06,05,04,28,11.60
2015,06,05,04,29,11.60
2015,06,05,04,30,11.60
2015,06,05,04,31,11.60
2015,06,05,04,32,11.60
2015,06,05,04,33,11.60
2015,06,05,04,34,11.70
2015,06,05,04,35,11.70
2015,06,05,04,36,11.80
2015,06,05,04,37,11.90
2015,06,05,04,38,12.00
2015,06,05,04,39,12.00
2015,06,05,04,40,12.10
2015,06,05,04,41,12.20
2015,06,05,04,42,12.30
2015,06,05,04,43,12.40
2015,06,05,04,44,12.50
2015,06,05,04,45,12.50
2015,06,05,04,46,12.50
2015,06,05,04,47,12.60
2015,06,05,04,48,12.60
2015,06,05,04,49,12.60
2015,06,05,04,50,12.60
2015,06,05,04,51,12.60
2015,06,05,04,52,12.60
2015,06,05,04,53,12.60
2015,06,05,04,54,12.60
2015,06,05,04,55,12.60
2015,06,05,04,56,12.50
2015,06,05,04,57,12.40
2015,06,05,04,58,12.30
2015,06,05,04,59,12.30
2015,06,05,05,00,12.20
2015,06,05,05,01,12.10
2015,06,05,05,02,12.00
2015,06,05,05,03,11.90
2015,06,05,05,04,11.80
2015,06,05,05,05,11.80
2015,06,05,05,06,11.70
2015,06,05,05,07,11.60
2015,06,05,05,08,11.60
2015,06,05,05,09,11.60
2015,06,05,05,10,11.50
2015,06,05,05,11,11.40
2015,06,05,05,12,11.40
2015,06,05,05,13,11.40
2015,06,05,05,14,11.30
2015,06,05,05,15,11.30
2015,06,05,05,16,11.30
2015,06,05,05,17,11.30
2015,06,05,05,18,11.20
2015,06,05,05,19,11.20
2015,06,05,05,20,11.20
2015,06,05,05,21,11.20
2015,06,05,05,22,11.20
2015,06,05,05,23,11.20
2015,06,05,05,24,11.20
2015,06,05,05,25,11.20
2015,06,05,05,26,11.30
2015,06,05,05,27,11.30
2015,06,05,05,28,11.30
2015,06,05,05,29,11.40
2015,06,05,05,30,11.40
2015,06,05,05,31,11.50
2015,06,05,05,32,11.60
2015,06,05,05,33,11.60
2015,06,05,05,34,11.70
2015,06,05,05,35,11.70
2015,06,05,05,36,11.70
2015,06,05,05,37,11.70
2015,06,05,05,38,11.70
2015,06,05,05,39,11.70
2015,06,05,05,40,11.70
2015,06,05,05,41,11.60
2015,06,05,05,42,11.60
2015,06,05,05,43,11.60
2015,06,05,05,44,11.60
2015,06,05,05,45,11.60
2015,06,05,05,46,11.60
2015,06,05,05,47,11.60
2015,06,05,05,48,11.60
2015,06,05,05,49,11.60
2015,06,05,05,50,11.70
2015,06,05,05,51,11.70
2015,06,05,05,52,11.70
2015,06,05,05,53,11.80
2015,06,05,05,54,11.80
2015,06,05,05,55,11.80
2015,06,05,05,56,11.80
2015,06,05,05,57,11.90
2015,06,05,05,58,11.90
2015,06,05,05,59,12.00
2015,06,05,06,00,12.10
2015,06,05,06,01,12.10
2015,06,05,06,02,12.20
2015,06,05,06,03,12.30
2015,06,05,06,04,12.40
2015,06,05,06,05,12.40
2015,06,05,06,06,12.50
2015,06,05,06,07,12.60
2015,06,05,06,08,12.60
2015,06,05,06,09,12.70
2015,06,05,06,10,12.80
2015,06,05,06,11,12.80
2015,06,05,06,12,12.80
2015,06,05,06,13,12.80
2015,06,05,06,14,12.80
2015,06,05,06,15,12.80
2015,06,05,06,16,12.80
2015,06,05,06,17,12.80
2015,06,05,06,18,12.80
2015,06,05,06,19,12.70
2015,06,05,06,20,12.70
2015,06,05,06,21,12.70
2015,06,05,06,22,12.60
2015,06,05,06,23,12.60
2015,06,05,06,24,12.60
2015,06,05,06,25,12.60
2015,06,05,06,26,12.60
2015,06,05,06,27,12.60
2015,06,05,06,28,12.60
2015,06,05,06,29,12.60
2015,06,05,06,30,12.70
2015,06,05,06,31,12.70
2015,06,05,06,32,12.80
2015,06,05,06,33,12.80
2015,06,05,06,34,12.80
2015,06,05,06,35,12.90
2015,06,05,06,36,13.00
2015,06,05,06,37,13.10
2015,06,05,06,38,13.20
2015,06,05,06,39,13.30
2015,06,05,06,40,13.30
2015,06,05,06,41,13.40
2015,06,05,06,42,13.50
2015,06,05,06,43,13.50
2015,06,05,06,44,13.60
2015,06,05,06,45,13.60
2015,06,05,06,46,13.70
2015,06,05,06,47,13.70
2015,06,05,06,48,13.70
2015,06,05,06,49,13.70
2015,06,05,06,50,13.80
2015,06,05,06,51,13.80
2015,06,05,06,52,13.80
2015,06,05,06,53,13.80
2015,06,05,06,54,13.80
2015,06,05,06,55,13.90
2015,06,05,06,56,14.00
2015,06,05,06,57,14.00
2015,06,05,06,58,14.20
2015,06,05,06,59,14.30
2015,06,05,07,00,14.40
2015,06,05,07,01,14.50
2015,06,05,07,02,14.70
2015,06,05,07,03,14.80
2015,06,05,07,04,15.00
2015,06,05,07,05,15.00
2015,06,05,07,06,15.00
2015,06,05,07,07,15.20
2015,06,05,07,08,15.30
2015,06,05,07,09,15.40
2015,06,05,07,10,15.60
2015,06,05,07,11,15.70
2015,06,05,07,12,15.80
2015,06,05,07,13,15.80
2015,06,05,07,14,15.90
2015,06,05,07,15,15.90
2015,06,05,07,16,16.00
2015,06,05,07,17,16.10
2015,06,05,07,18,16.10
2015,06,05,07,19,16.20
2015,06,05,07,20,16.20
2015,06,05,07,21,16.20
2015,06,05,07,22,16.20
2015,06,05,07,23,16.30
2015,06,05,07,24,16.30
2015,06,05,07,25,16.30
2015,06,05,07,26,16.40
2015,06,05,07,27,16.50
2015,06,05,07,28,16.50
2015,06,05,07,29,16.60
2015,06,05,07,30,16.70
2015,06,05,07,31,16.70
2015,06,05,07,32,16.70
2015,06,05,07,33,16.70
2015,06,05,07,34,16.70
2015,06,05,07,35,16.70
2015,06,05,07,36,16.80
2015,06,05,07,37,16.80
2015,06,05,07,38,16.80
2015,06,05,07,39,16.80
2015,06,05,07,40,16.70
2015,06,05,07,41,16.70
2015,06,05,07,42,16.70
2015,06,05,07,43,16.60
2015,06,05,07,44,16.60
2015,06,05,07,45,16.60
2015,06,05,07,46,16.60
2015,06,05,07,47,16.60
2015,06,05,07,48,16.70
2015,06,05,07,49,16.70
2015,06,05,07,50,16.70
2015,06,05,07,51,16.80
2015,06,05,07,52,16.80
2015,06,05,07,53,16.80
2015,06,05,07,54,16.80
2015,06,05,07,55,16.80
2015,06,05,07,56,16.80
2015,06,05,07,57,16.80
2015,06,05,07,58,16.90
2015,06,05,07,59,16.90
2015,06,05,08,00,17.00
2015,06,05,08,01,17.00
2015,06,05,08,02,17.10
2015,06,05,08,03,17.10
2015,06,05,08,04,17.20
2015,06,05,08,05,17.30
2015,06,05,08,06,17.40
2015,06,05,08,07,17.40
2015,06,05,08,08,17.60
2015,06,05,08,09,17.60
2015,06,05,08,10,17.70
2015,06,05,08,11,17.70
2015,06,05,08,12,17.80
2015,06,05,08,13,17.80
2015,06,05,08,14,17.90
2015,06,05,08,15,18.00
2015,06,05,08,16,18.00
2015,06,05,08,17,18.10
2015,06,05,08,18,18.20
2015,06,05,08,19,18.20
2015,06,05,08,20,18.30
2015,06,05,08,21,18.40
2015,06,05,08,22,18.50
2015,06,05,08,23,18.60
2015,06,05,08,24,18.70
2015,06,05,08,25,18.80
2015,06,05,08,26,18.80
2015,06,05,08,27,18.90
2015,06,05,08,28,18.90
2015,06,05,08,29,18.90
2015,06,05,08,30,18.90
2015,06,05,08,31,18.90
2015,06,05,08,32,18.90
2015,06,05,08,33,18.90
2015,06,05,08,34,18.90
2015,06,05,08,35,18.90
2015,06,05,08,36,19.00
2015,06,05,08,37,19.00
2015,06,05,08,38,19.00
2015,06,05,08,39,19.10
2015,06,05,08,40,19.10
2015,06,05,08,41,19.20
2015,06,05,08,42,19.20
2015,06,05,08,43,19.30
2015,06,05,08,44,19.40
2015,06,05,08,45,19.40
2015,06,05,08,46,19.50
2015,06,05,08,47,19.50
2015,06,05,08,48,19.60
2015,06,05,08,49,19.70
2015,06,05,08,50,19.70
2015,06,05,08,51,19.80
2015,06,05,08,52,19.80
2015,06,05,08,53,19.90
2015,06,05,08,54,20.00
2015,06,05,08,55,20.00
2015,06,05,08,56,20.10
2015,06,05,08,57,20.10
2015,06,05,08,58,20.00
2015,06,05,08,59,20.00
2015,06,05,09,00,20.00
2015,06,05,09,01,20.00
2015,06,05,09,02,20.10
2015,06,05,09,03,20.00
2015,06,05,09,04,19.90
2015,06,05,09,05,19.90
2015,06,05,09,06,19.80
2015,06,05,09,07,19.70
2015,06,05,09,08,19.70
2015,06,05,09,09,19.70
2015,06,05,09,10,19.70
2015,06,05,09,11,19.70
2015,06,05,09,12,19.80
2015,06,05,09,13,19.80
2015,06,05,09,14,19.80
2015,06,05,09,15,19.90
2015,06,05,09,16,20.00
2015,06,05,09,17,20.00
2015,06,05,09,18,20.10
2015,06,05,09,19,20.20
2015,06,05,09,20,20.30
2015,06,05,09,21,20.40
2015,06,05,09,22,20.40
2015,06,05,09,23,20.50
2015,06,05,09,24,20.60
2015,06,05,09,25,20.60
2015,06,05,09,26,20.50
2015,06,05,09,27,20.40
2015,06,05,09,28,20.30
2015,06,05,09,29,20.20
2015,06,05,09,30,20.20
2015,06,05,09,31,20.10
2015,06,05,09,32,20.10
2015,06,05,09,33,20.00
2015,06,05,09,34,20.00
2015,06,05,09,35,19.90
2015,06,05,09,36,19.90
2015,06,05,09,37,19.90
2015,06,05,09,38,19.90
2015,06,05,09,39,19.80
2015,06,05,09,40,19.90
2015,06,05,09,41,19.90
2015,06,05,09,42,20.00
2015,06,05,09,43,20.00
2015,06,05,09,44,20.10
2015,06,05,09,45,20.10
2015,06,05,09,46,20.10
2015,06,05,09,47,20.10
2015,06,05,09,48,20.00
2015,06,05,09,49,20.10
2015,06,05,09,50,20.10
2015,06,05,09,51,20.10
2015,06,05,09,52,20.10
2015,06,05,09,53,20.20
2015,06,05,09,54,20.20
2015,06,05,09,55,20.20
2015,06,05,09,56,20.20
2015,06,05,09,57,20.20
2015,06,05,09,58,20.30
2015,06,05,09,59,20.20
2015,06,05,10,00,20.10
2015,06,05,10,01,20.10
2015,06,05,10,02,20.10
2015,06,05,10,03,20.10
2015,06,05,10,04,20.10
2015,06,05,10,05,20.20
2015,06,05,10,06,20.30
2015,06,05,10,07,20.50
2015,06,05,10,08,20.70
2015,06,05,10,09,20.80
2015,06,05,10,10,20.80
2015,06,05,10,11,20.70
2015,06,05,10,12,20.70
2015,06,05,10,13,20.70
2015,06,05,10,14,20.80
2015,06,05,10,15,20.80
2015,06,05,10,16,20.90
2015,06,05,10,17,21.00
2015,06,05,10,18,21.00
2015,06,05,10,19,21.10
2015,06,05,10,20,21.00
2015,06,05,10,21,20.90
2015,06,05,10,22,20.90
2015,06,05,10,23,20.90
2015,06,05,10,24,20.90
2015,06,05,10,25,20.90
2015,06,05,10,26,20.90
2015,06,05,10,27,20.90
2015,06,05,10,28,21.00
2015,06,05,10,29,21.10
2015,06,05,10,30,21.10
2015,06,05,10,31,21.00
2015,06,05,10,32,21.00
2015,06,05,10,33,20.90
2015,06,05,10,34,21.00
2015,06,05,10,35,21.10
2015,06,05,10,36,21.00
2015,06,05,10,37,20.80
2015,06,05,10,38,20.80
2015,06,05,10,39,20.90
2015,06,05,10,40,21.00
2015,06,05,10,41,21.10
2015,06,05,10,42,20.90
2015,06,05,10,43,20.80
2015,06,05,10,44,20.80
2015,06,05,10,45,20.70
2015,06,05,10,46,20.60
2015,06,05,10,47,20.50
2015,06,05,10,48,20.40
2015,06,05,10,49,20.30
2015,06,05,10,50,20.40
2015,06,05,10,51,20.30
2015,06,05,10,52,20.30
2015,06,05,10,53,20.40
2015,06,05,10,54,20.40
2015,06,05,10,55,20.40
2015,06,05,10,56,20.50
2015,06,05,10,57,20.70
2015,06,05,10,58,20.80
2015,06,05,10,59,20.80
2015,06,05,11,00,20.70
2015,06,05,11,01,20.60
2015,06,05,11,02,20.60
2015,06,05,11,03,20.70
2015,06,05,11,04,20.70
2015,06,05,11,05,20.80
2015,06,05,11,06,20.80
2015,06,05,11,07,21.00
2015,06,05,11,08,21.10
2015,06,05,11,09,21.10
2015,06,05,11,10,21.10
2015,06,05,11,11,21.20
2015,06,05,11,12,21.20
2015,06,05,11,13,21.20
2015,06,05,11,14,21.30
2015,06,05,11,15,21.30
2015,06,05,11,16,21.40
2015,06,05,11,17,21.30
2015,06,05,11,18,21.40
2015,06,05,11,19,21.40
2015,06,05,11,20,21.50
2015,06,05,11,21,21.40
2015,06,05,11,22,21.40
2015,06,05,11,23,21.40
2015,06,05,11,24,21.20
2015,06,05,11,25,21.10
2015,06,05,11,26,21.10
2015,06,05,11,27,21.10
2015,06,05,11,28,21.20
2015,06,05,11,29,21.20
2015,06,05,11,30,21.20
2015,06,05,11,31,21.30
2015,06,05,11,32,21.40
2015,06,05,11,33,21.40
2015,06,05,11,34,21.30
2015,06,05,11,35,21.30
2015,06,05,11,36,21.20
2015,06,05,11,37,21.10
2015,06,05,11,38,21.10
2015,06,05,11,39,21.00
2015,06,05,11,40,21.00
2015,06,05,11,41,20.90
2015,06,05,11,42,20.90
2015,06,05,11,43,20.90
2015,06,05,11,44,20.90
2015,06,05,11,45,21.00
2015,06,05,11,46,21.10
2015,06,05,11,47,21.10
2015,06,05,11,48,21.30
2015,06,05,11,49,21.40
2015,06,05,11,50,21.50
2015,06,05,11,51,21.60
2015,06,05,11,52,21.70
2015,06,05,11,53,21.60
2015,06,05,11,54,21.60
2015,06,05,11,55,21.60
2015,06,05,11,56,21.50
2015,06,05,11,57,21.50
2015,06,05,11,58,21.40
2015,06,05,11,59,21.50
2015,06,05,12,00,21.70
2015,06,05,12,01,21.80
2015,06,05,12,02,21.90
2015,06,05,12,03,22.00
2015,06,05,12,04,22.00
2015,06,05,12,05,21.90
2015,06,05,12,06,21.80
2015,06,05,12,07,21.70
2015,06,05,12,08,21.70
2015,06,05,12,09,21.80
2015,06,05,12,10,21.90
2015,06,05,12,11,22.10
2015,06,05,12,12,22.20
2015,06,05,12,13,22.10
2015,06,05,12,14,22.00
2015,06,05,12,15,21.90
2015,06,05,12,16,21.80
2015,06,05,12,17,21.70
2015,06,05,12,18,21.50
2015,06,05,12,19,21.50
2015,06,05,12,20,21.40
2015,06,05,12,21,21.30
2015,06,05,12,22,21.30
2015,06,05,12,23,21.30
2015,06,05,12,24,21.30
2015,06,05,12,25,21.30
2015,06,05,12,26,21.30
2015,06,05,12,27,21.30
2015,06,05,12,28,21.30
2015,06,05,12,29,21.40
2015,06,05,12,30,21.40
2015,06,05,12,31,21.50
2015,06,05,12,32,21.50
2015,06,05,12,33,21.50
2015,06,05,12,34,21.50
2015,06,05,12,35,21.50
2015,06,05,12,36,21.50
2015,06,05,12,37,21.50
2015,06,05,12,38,21.60
2015,06,05,12,39,21.70
2015,06,05,12,40,21.80
2015,06,05,12,41,21.80
2015,06,05,12,42,21.80
2015,06,05,12,43,21.80
2015,06,05,12,44,21.90
2015,06,05,12,45,22.00
2015,06,05,12,46,22.10
2015,06,05,12,47,22.10
2015,06,05,12,48,22.20
2015,06,05,12,49,22.20
2015,06,05,12,50,22.20
2015,06,05,12,51,22.30
2015,06,05,12,52,22.40
2015,06,05,12,53,22.60
2015,06,05,12,54,22.70
2015,06,05,12,55,22.80
2015,06,05,12,56,22.80
2015,06,05,12,57,22.70
2015,06,05,12,58,22.80
2015,06,05,12,59,22.80
2015,06,05,13,00,22.60
2015,06,05,13,01,22.50
2015,06,05,13,02,22.40
2015,06,05,13,03,22.40
2015,06,05,13,04,22.40
2015,06,05,13,05,22.30
2015,06,05,13,06,22.30
2015,06,05,13,07,22.40
2015,06,05,13,08,22.30
2015,06,05,13,09,22.40
2015,06,05,13,10,22.60
2015,06,05,13,11,22.70
2015,06,05,13,12,22.70
2015,06,05,13,13,22.60
2015,06,05,13,14,22.70
2015,06,05,13,15,22.70
2015,06,05,13,16,22.70
2015,06,05,13,17,22.60
2015,06,05,13,18,22.50
2015,06,05,13,19,22.60
2015,06,05,13,20,22.60
2015,06,05,13,21,22.80
2015,06,05,13,22,22.90
2015,06,05,13,23,23.10
2015,06,05,13,24,23.10
2015,06,05,13,25,23.10
2015,06,05,13,26,23.10
2015,06,05,13,27,23.10
2015,06,05,13,28,23.10
2015,06,05,13,29,23.10
2015,06,05,13,30,23.10
2015,06,05,13,31,23.10
2015,06,05,13,32,23.10
2015,06,05,13,33,23.10
2015,06,05,13,34,23.10
2015,06,05,13,35,23.00
2015,06,05,13,36,22.90
2015,06,05,13,37,22.90
2015,06,05,13,38,22.90
2015,06,05,13,39,22.80
2015,06,05,13,40,22.80
2015,06,05,13,41,22.90
2015,06,05,13,42,22.80
2015,06,05,13,43,22.80
2015,06,05,13,44,22.80
2015,06,05,13,45,22.80
2015,06,05,13,46,22.90
2015,06,05,13,47,23.00
2015,06,05,13,48,23.10
2015,06,05,13,49,23.20
2015,06,05,13,50,23.20
2015,06,05,13,51,23.30
2015,06,05,13,52,23.30
2015,06,05,13,53,23.40
2015,06,05,13,54,23.50
2015,06,05,13,55,23.50
2015,06,05,13,56,23.70
2015,06,05,13,57,23.90
2015,06,05,13,58,23.90
2015,06,05,13,59,23.90
2015,06,05,14,00,23.90
2015,06,05,14,01,23.80
2015,06,05,14,02,23.80
2015,06,05,14,03,23.70
2015,06,05,14,04,23.60
2015,06,05,14,05,23.50
2015,06,05,14,06,23.30
2015,06,05,14,07,23.30
2015,06,05,14,08,23.30
2015,06,05,14,09,23.30
2015,06,05,14,10,23.30
2015,06,05,14,11,23.30
2015,06,05,14,12,23.30
2015,06,05,14,13,23.30
2015,06,05,14,14,23.20
2015,06,05,14,15,23.30
2015,06,05,14,16,23.50
2015,06,05,14,17,23.50
2015,06,05,14,18,23.60
2015,06,05,14,19,23.70
2015,06,05,14,20,23.70
2015,06,05,14,21,23.50
2015,06,05,14,22,23.40
2015,06,05,14,23,23.40
2015,06,05,14,24,23.40
2015,06,05,14,25,23.40
2015,06,05,14,26,23.50
2015,06,05,14,27,23.70
2015,06,05,14,28,23.80
2015,06,05,14,29,23.80
2015,06,05,14,30,23.70
2015,06,05,14,31,23.60
2015,06,05,14,32,23.50
2015,06,05,14,33,23.50
2015,06,05,14,34,23.50
2015,06,05,14,35,23.70
2015,06,05,14,36,23.80
2015,06,05,14,37,23.90
2015,06,05,14,38,24.00
2015,06,05,14,39,23.90
2015,06,05,14,40,23.90
2015,06,05,14,41,24.00
2015,06,05,14,42,24.10
2015,06,05,14,43,24.20
2015,06,05,14,44,24.20
2015,06,05,14,45,24.10
2015,06,05,14,46,24.00
2015,06,05,14,47,23.90
2015,06,05,14,48,24.00
2015,06,05,14,49,24.00
2015,06,05,14,50,24.10
2015,06,05,14,51,24.10
2015,06,05,14,52,24.10
2015,06,05,14,53,24.00
2015,06,05,14,54,23.90
2015,06,05,14,55,24.00
2015,06,05,14,56,24.10
2015,06,05,14,57,24.20
2015,06,05,14,58,24.20
2015,06,05,14,59,24.30
2015,06,05,15,00,24.40
2015,06,05,15,01,24.50
2015,06,05,15,02,24.60
2015,06,05,15,03,24.70
2015,06,05,15,04,24.80
2015,06,05,15,05,24.80
2015,06,05,15,06,24.80
2015,06,05,15,07,24.80
2015,06,05,15,08,24.70
2015,06,05,15,09,24.70
2015,06,05,15,10,24.60
2015,06,05,15,11,24.50
2015,06,05,15,12,24.40
2015,06,05,15,13,24.50
2015,06,05,15,14,24.60
2015,06,05,15,15,24.70
2015,06,05,15,16,24.70
2015,06,05,15,17,24.70
2015,06,05,15,18,24.70
2015,06,05,15,19,24.70
2015,06,05,15,20,24.80
2015,06,05,15,21,24.80
2015,06,05,15,22,24.90
2015,06,05,15,23,24.80
2015,06,05,15,24,24.80
2015,06,05,15,25,24.80
2015,06,05,15,26,24.80
2015,06,05,15,27,24.80
2015,06,05,15,28,24.90
2015,06,05,15,29,24.90
2015,06,05,15,30,24.90
2015,06,05,15,31,24.80
2015,06,05,15,32,24.80
2015,06,05,15,33,24.70
2015,06,05,15,34,24.50
2015,06,05,15,35,24.50
2015,06,05,15,36,24.50
2015,06,05,15,37,24.40
2015,06,05,15,38,24.40
2015,06,05,15,39,24.40
2015,06,05,15,40,24.50
2015,06,05,15,41,24.60
2015,06,05,15,42,24.60
2015,06,05,15,43,24.70
2015,06,05,15,44,24.80
2015,06,05,15,45,24.90
2015,06,05,15,46,25.00
2015,06,05,15,47,25.10
2015,06,05,15,48,25.10
2015,06,05,15,49,25.10
2015,06,05,15,50,25.10
2015,06,05,15,51,25.00
2015,06,05,15,52,25.00
2015,06,05,15,53,25.10
2015,06,05,15,54,25.10
2015,06,05,15,55,25.20
2015,06,05,15,56,25.30
2015,06,05,15,57,25.40
2015,06,05,15,58,25.50
2015,06,05,15,59,25.60
2015,06,05,16,00,25.70
2015,06,05,16,01,25.90
2015,06,05,16,02,25.90
2015,06,05,16,03,25.90
2015,06,05,16,04,26.00
2015,06,05,16,05,26.00
2015,06,05,16,06,26.10
2015,06,05,16,07,26.20
2015,06,05,16,08,26.20
2015,06,05,16,09,26.00
2015,06,05,16,10,25.90
2015,06,05,16,11,25.90
2015,06,05,16,12,25.90
2015,06,05,16,13,26.00
2015,06,05,16,14,26.00
2015,06,05,16,15,25.90
2015,06,05,16,16,25.80
2015,06,05,16,17,25.70
2015,06,05,16,18,25.70
2015,06,05,16,19,25.70
2015,06,05,16,20,25.70
2015,06,05,16,21,25.60
2015,06,05,16,22,25.60
2015,06,05,16,23,25.50
2015,06,05,16,24,25.40
2015,06,05,16,25,25.40
2015,06,05,16,26,25.50
2015,06,05,16,27,25.60
2015,06,05,16,28,25.60
2015,06,05,16,29,25.70
2015,06,05,16,30,25.80
2015,06,05,16,31,25.80
2015,06,05,16,32,25.80
2015,06,05,16,33,25.80
2015,06,05,16,34,25.60
2015,06,05,16,35,25.50
2015,06,05,16,36,25.50
2015,06,05,16,37,25.50
2015,06,05,16,38,25.40
2015,06,05,16,39,25.30
2015,06,05,16,40,25.30
2015,06,05,16,41,25.30
2015,06,05,16,42,25.40
2015,06,05,16,43,25.40
2015,06,05,16,44,25.40
2015,06,05,16,45,25.40
2015,06,05,16,46,25.40
2015,06,05,16,47,25.50
2015,06,05,16,48,25.60
2015,06,05,16,49,25.70
2015,06,05,16,50,25.80
2015,06,05,16,51,25.90
2015,06,05,16,52,25.90
2015,06,05,16,53,25.90
2015,06,05,16,54,25.90
2015,06,05,16,55,25.80
2015,06,05,16,56,25.70
2015,06,05,16,57,25.40
2015,06,05,16,58,25.20
2015,06,05,16,59,25.10
2015,06,05,17,00,25.00
2015,06,05,17,01,25.00
2015,06,05,17,02,24.90
2015,06,05,17,03,24.90
2015,06,05,17,04,25.00
2015,06,05,17,05,25.10
2015,06,05,17,06,25.20
2015,06,05,17,07,25.20
2015,06,05,17,08,25.30
2015,06,05,17,09,25.30
2015,06,05,17,10,25.30
2015,06,05,17,11,25.30
2015,06,05,17,12,25.30
2015,06,05,17,13,25.40
2015,06,05,17,14,25.50
2015,06,05,17,15,25.50
2015,06,05,17,16,25.50
2015,06,05,17,17,25.50
2015,06,05,17,18,25.50
2015,06,05,17,19,25.40